Weather in Russkiy Sars

Russia / Perm Krai     56°11′51″N   57°06′03″E
temp.,
°C
wind,
m/s
gust,
m/s
humid.,
%
clouds,
%
prec.,
mm/h
press.,
hPa
HPBL,
m
25 january, mon
mon2523:00−4ssw2597100 1.1 1025185
02:000wsw3899100 0.4 1025376
05:00+1wsw31099100 1.2 1026381
08:00+1wsw41098100 0.9 1027404
11:00−1sw51097100 1.4 1028441
14:00−1sw51196100 0.9 1029618
17:00−2sw51194100 1.4 1030581
20:00−2sw41094100 0.1 1031668
26 january, tue
tue2623:00−2sw31096100 0.3 1031625
02:00−2sw51095100 0.2 1031719
05:00−4sw5995100 0.3 1030620
08:00−4sw31096100 0.3 1030589
11:00−2sw4993100 0.4 1030818
14:00−2sw5990100 0.1 1029884
17:00−3sw51093100 0.3 1029703
20:00−5sw51094100 0.2 1029698
27 january, wed
wed2723:00−5sw5994100 0.4 1029582
02:00−7sw41195100 0.2 1030464
05:00−8ssw41194100 0.2 1029424
08:00−8ssw51194100 0.1 1030412
11:00−7sw51393100 0.1 1029480
14:00−6sw51193100 0.0 1029486
17:00−6ssw4129499 0.1 1028515
20:00−6ssw5139492 0.0 1028517
28 january, thu
thu2823:00−6ssw5149295 0.1 1027513
02:00−7ssw51491100 0.0 1027453
05:00−7ssw51591100 0.0 1026452
08:00−7ssw51490100 0.0 1026447
11:00−6ssw51489100 0.0 1025469
14:00−5sw51188100 0.0 1025426
17:00−5ssw41188100 0.0 1024439
20:00−6ssw41289100 0.0 1024391
29 january, fri
fri2923:00−6ssw31287100 0.0 1024359
02:00−7ssw31090100 0.0 1023292
05:00−8s2690100 0.0 1023139
08:00−8sse2388100 0.0 102267
11:00−6se2384100 0.0 102180
14:00−1ese2579100 0.0 1020190
17:00−3e4879100 0.0 1018201
20:00−3e51180100 0.0 1018264